sat.trackr.live / text

‹ back to catalog

STARLINK-34223

NORAD 64336 · 2025-124V

PAYLOAD ACTIVE UNKNOWN

§ Identity

Operator
Country
US
Launch date
2025-06-10
Launch site
AFETR
Launch vehicle
Mass (kg)
RCS (m²)

Purposes: comms

External: N2YO · Heavens-Above · Gunter

§ Orbital elements

Epoch: 2026-09-20T06:39:13.262976Z

Period
94.27 min
Inclination
43.0028°
Eccentricity
0.0001486
Mean motion
15.27585351 rev/d
Perigee alt
482.0 km
Apogee alt
484.1 km
Semi-major
6,861.2 km
B*
5.2845e-4
RAAN
99.0056°
Arg perigee
272.3257°
Mean anomaly
87.7425°
Rev number
7,158

§ Raw data

STARLINK-342231 64336U 25124V   26263.27723684  .00014310  00000+0  52845-3 0  99992 64336  43.0028  99.0056 0001486 272.3257  87.7425 15.27585351 71583

JSON: /api/v1/satellites/64336 · /tle

For live sub-satellite position, see the globe view (requires WebGL).

§ Visibility from observer

Set your observer location to see the next 7 days of passes ≥ 10°. The values pass through the URL so the page stays shareable.

No JS? Fill the form by hand. The geolocation button needs JavaScript.